[[{"header":{"parameterUnit":"m.s-1","parameterCategory":1,"la1":30.2991,"la2":30.254,"lo1":-89.0895,"lo2":-89.0444,"dy":0.0017,"dx":0.0017,"nx":28,"ny":28,"refTime":"2023-08-31T21:00:00:Z","depth":0,"parameterNumber":2,"parameterNumberName":"U-component_of_WINDS"},"data":[0,0,0,0,0,0,0,0,0,0,0,0,0,0,0,0,0,0,0,0,0,0,0,0,0,0,0,0,0,0,0,0,0,0,0,0,0,0,0,0,0,0,0,0,0,0,0,0,0,0,0,0,0,0,0,0,0,0,-0.5809,-0.5808,0,-0.5715,-0.5714,-0.5713,-0.5651,-0.5651,-0.565,-0.565,-0.555,-0.5548,-0.5546,0,0,0,0,0,0,0,0,0,0,0,0,0,-0.5931,-0.5929,-0.5809,-0.5808,-0.5807,-0.5715,-0.5714,-0.5713,-0.5651,-0.5651,-0.565,-0.565,-0.5551,-0.5548,-0.5546,0,0,0,0,0,0,0,0,0,0,0,0,0,-0.5861,-0.5928,-0.5809,-0.5765,-0.576,-0.5716,-0.5714,-0.5713,-0.5651,-0.5651,-0.565,-0.565,-0.5552,-0.5549,-0.5545,-0.5536,0,0,-0.5535,-0.5533,0,0,0,0,0,0,0,0,-0.5865,-0.5857,-0.5773,-0.5768,-0.5763,-0.5694,-0.572,-0.5653,-0.5652,-0.5693,-0.565,-0.5649,-0.5598,-0.5591,-0.5575,-0.5531,-0.5527,-0.5534,-0.5532,-0.5531,-0.553,0,0,0,0,0,0,0,-0.587,-0.5861,-0.5772,-0.5772,-0.5765,-0.5749,-0.5738,-0.5707,-0.565,-0.5689,-0.5684,-0.5674,-0.5596,-0.5578,-0.5572,-0.5526,-0.5535,-0.5531,-0.5529,-0.5528,-0.5468,-0.5469,0,0,0,0,0,0,-0.5883,-0.5865,-0.5775,-0.5769,-0.5814,-0.5747,-0.5735,-0.5717,-0.565,-0.5639,-0.5675,-0.5672,-0.5584,-0.5576,-0.5568,-0.5552,-0.5531,-0.5528,-0.5526,-0.5468,-0.5468,-0.5469,0,0,0,0,0,0,-0.5885,-0.5875,-0.5779,-0.5816,-0.5802,-0.5746,-0.5725,-0.5715,-0.5698,-0.564,-0.5629,-0.5668,-0.5584,-0.5573,-0.5544,-0.5548,-0.5526,-0.5523,-0.5467,-0.5468,-0.5469,-0.552,0,0,0,0,0,0,-0.5889,-0.5877,-0.5873,-0.5816,-0.5801,-0.5758,-0.5726,-0.5714,-0.5693,-0.5688,-0.563,-0.562,-0.5582,-0.555,-0.5541,-0.5542,-0.552,-0.5467,-0.5468,-0.5468,-0.5518,-0.5522,-0.5526,0,0,0,0,0,-0.5894,-0.5891,-0.5874,-0.5863,-0.5796,-0.5758,-0.5749,-0.5707,-0.5693,-0.5689,-0.5651,-0.5622,-0.5549,-0.5548,-0.5537,-0.5537,-0.5466,-0.5467,-0.5468,-0.5516,-0.5521,-0.5526,0,0,0,0,0,0,-0.5949,-0.5883,-0.5863,-0.5842,-0.5806,-0.5748,-0.5741,-0.5714,-0.5681,-0.5677,-0.5625,-0.5613,-0.5589,-0.556,-0.556,-0.5524,-0.5504,-0.5503,-0.5544,-0.5549,-0.5553,-0.556,-0.5517,0,0,0,0,0,-0.5959,-0.5935,-0.5878,-0.5865,-0.5848,-0.5798,-0.578,-0.5751,-0.5711,-0.5695,-0.5656,-0.5617,-0.5585,-0.5566,-0.5533,-0.5514,-0.5499,-0.5509,-0.5513,-0.5517,-0.5516,-0.5502,-0.5505,-0.5472,-0.5472,-0.5472,0,0,-0.5979,-0.594,-0.5928,-0.5875,-0.5844,-0.5819,-0.5786,-0.5761,-0.5742,-0.5691,-0.5662,-0.5631,-0.5585,-0.5561,-0.5548,-0.5536,-0.5522,-0.5518,-0.5522,-0.5519,-0.5504,-0.5507,-0.551,-0.5473,-0.5473,-0.5473,0,0,-0.6002,-0.5971,-0.5956,-0.5926,-0.588,-0.5846,-0.5843,-0.5788,-0.5766,-0.5736,-0.5698,-0.5673,-0.562,-0.5588,-0.5565,-0.5577,-0.5548,-0.5568,-0.5589,-0.5577,-0.5579,-0.5581,-0.5584,-0.5585,-0.5567,-0.5567,-0.5568,0,-0.6032,-0.5994,-0.5951,-0.5929,-0.5906,-0.5861,-0.5845,-0.5817,-0.5762,-0.5747,-0.5735,-0.5667,-0.5633,-0.56,-0.5602,-0.5586,-0.5579,-0.5573,-0.5583,-0.5584,-0.5585,-0.5587,-0.5588,-0.557,-0.557,-0.557,-0.5569,0,-0.6033,-0.6007,-0.6001,-0.595,-0.5927,-0.5907,-0.586,-0.5842,-0.5814,-0.5782,-0.5751,-0.5708,-0.5666,-0.5656,-0.5629,-0.5619,-0.5613,-0.5593,-0.5571,-0.5592,-0.5592,-0.5593,-0.5574,-0.5573,-0.5572,-0.5571,0,0,-0.6087,-0.6014,-0.6012,-0.5988,-0.5934,-0.5912,-0.589,-0.585,-0.5835,-0.5798,-0.5778,-0.5734,-0.5715,-0.5688,-0.5657,-0.5646,-0.5656,-0.5627,-0.5625,-0.5632,-0.564,-0.5655,-0.5657,-0.5637,-0.5637,-0.5637,-0.5644,0,-0.6101,-0.6061,-0.6021,-0.5994,-0.5969,-0.5926,-0.5907,-0.5871,-0.584,-0.5813,-0.5778,-0.5747,-0.5725,-0.5709,-0.5696,-0.5658,-0.5657,-0.5657,-0.5615,-0.5615,-0.5627,-0.5657,-0.5673,-0.5681,-0.5644,-0.5644,-0.5644,0,-0.6112,-0.6079,-0.605,-0.5997,-0.5985,-0.5969,-0.5928,-0.5904,-0.5862,-0.584,-0.5811,-0.5778,-0.5751,-0.5734,-0.5695,-0.5696,-0.5677,-0.5656,-0.5655,-0.5648,-0.563,-0.565,-0.5683,-0.5684,-0.5644,-0.5644,-0.5644,0,-0.6153,-0.6101,-0.6076,-0.6057,-0.5996,-0.5985,-0.5959,-0.5916,-0.5894,-0.5859,-0.5844,-0.5805,-0.5784,-0.5754,-0.5711,-0.5703,-0.5677,-0.5656,-0.5656,-0.5657,-0.5651,-0.5652,-0.568,-0.5642,-0.5642,-0.5642,-0.5642,0,-0.6171,-0.6155,-0.6094,-0.6079,-0.6059,-0.6013,-0.5994,-0.5963,-0.5926,-0.5903,-0.5863,-0.5842,-0.5788,-0.576,-0.5726,-0.5698,-0.5689,-0.5669,-0.566,-0.5672,-0.5675,-0.5658,-0.5655,-0.5642,-0.5642,-0.5642,-0.5642,0,-0.6213,-0.6172,-0.6142,-0.6087,-0.6073,-0.606,-0.6012,-0.5995,-0.5962,-0.5933,-0.5924,-0.5871,-0.5836,-0.5791,-0.5742,-0.5719,-0.5695,-0.5682,-0.5709,-0.5704,-0.5706,-0.5706,-0.5723,-0.5722,-0.5687,-0.5687,-0.5687,0,-0.6227,-0.6214,-0.6157,-0.614,-0.6115,-0.6087,-0.6065,-0.6019,-0.5997,-0.5948,-0.5937,-0.5899,-0.5866,-0.5812,-0.5769,-0.573,-0.5715,-0.5724,-0.5709,-0.5721,-0.5713,-0.5714,-0.5712,-0.5727,-0.5728,-0.5728,-0.5729,0,-0.6256,-0.6236,-0.6207,-0.6169,-0.6144,-0.6113,-0.6079,-0.6066,-0.6013,-0.5991,-0.5955,-0.593,-0.588,-0.5842,-0.5798,-0.5769,-0.574,-0.5734,-0.5732,-0.5743,-0.5759,-0.5749,-0.5718,-0.5733,-0.5733,-0.5733,-0.5732,-0.5732,-0.6283,-0.6269,-0.6227,-0.6194,-0.6165,-0.6134,-0.6115,-0.608,-0.605,-0.6006,-0.5981,-0.5946,-0.5903,-0.5841,-0.5814,-0.5784,-0.5773,-0.577,-0.5769,-0.5769,-0.5772,-0.5765,-0.5776,-0.5776,-0.5776,-0.5776,-0.5776,0,-0.6309,-0.628,-0.6251,-0.6205,-0.618,-0.6156,-0.6117,-0.6097,-0.6067,-0.603,-0.5999,-0.5957,-0.5921,-0.5875,-0.5835,-0.582,-0.5805,-0.5811,-0.5811,-0.5804,-0.5785,-0.579,-0.5823,-0.5823,-0.5823,-0.5823,-0.5823,-0.5823,-0.6319,-0.6293,-0.6268,-0.6226,-0.6197,-0.6163,-0.6143,-0.6114,-0.6084,-0.604,-0.601,-0.5981,-0.5939,-0.5896,-0.5861,-0.5848,-0.5834,-0.5844,-0.5827,-0.581,-0.5806,-0.5802,-0.5806,-0.5842,-0.5842,-0.5848,-0.5848,-0.5848]},{"header":{"parameterUnit":"m.s-1","parameterCategory":1,"la1":30.2991,"la2":30.254,"lo1":-89.0895,"lo2":-89.0444,"dy":0.0017,"dx":0.0017,"nx":28,"ny":28,"refTime":"2023-08-31T21:00:00:Z","depth":0,"parameterNumber":3,"parameterNumberName":"V-component_of_WINDS"},"data":[0,0,0,0,0,0,0,0,0,0,0,0,0,0,0,0,0,0,0,0,0,0,0,0,0,0,0,0,0,0,0,0,0,0,0,0,0,0,0,0,0,0,0,0,0,0,0,0,0,0,0,0,0,0,0,0,0,0,-0.2277,-0.2277,0,-0.2217,-0.2216,-0.2215,-0.2196,-0.2196,-0.2197,-0.2197,-0.2131,-0.2129,-0.2127,0,0,0,0,0,0,0,0,0,0,0,0,0,-0.2372,-0.2371,-0.2277,-0.2277,-0.2276,-0.2217,-0.2216,-0.2215,-0.2196,-0.2196,-0.2197,-0.2197,-0.2132,-0.2129,-0.2127,0,0,0,0,0,0,0,0,0,0,0,0,0,-0.2323,-0.237,-0.2277,-0.2259,-0.2257,-0.2217,-0.2216,-0.2215,-0.2196,-0.2196,-0.2197,-0.2197,-0.2133,-0.213,-0.2127,-0.2099,0,0,-0.2117,-0.2116,0,0,0,0,0,0,0,0,-0.2326,-0.232,-0.2263,-0.226,-0.2258,-0.2215,-0.2225,-0.2176,-0.2196,-0.2219,-0.2197,-0.2197,-0.2158,-0.2153,-0.2141,-0.2096,-0.2094,-0.2117,-0.2115,-0.2114,-0.2113,0,0,0,0,0,0,0,-0.2329,-0.2322,-0.2253,-0.2262,-0.2259,-0.2253,-0.2246,-0.2216,-0.2187,-0.2217,-0.2215,-0.2209,-0.2157,-0.2144,-0.2139,-0.2093,-0.2117,-0.2115,-0.2113,-0.2112,-0.2021,-0.2021,0,0,0,0,0,0,-0.2336,-0.2325,-0.2255,-0.2251,-0.2294,-0.2251,-0.2243,-0.2228,-0.2187,-0.2181,-0.2208,-0.2208,-0.2149,-0.2143,-0.2137,-0.2101,-0.2114,-0.2111,-0.211,-0.2022,-0.2021,-0.2021,0,0,0,0,0,0,-0.2339,-0.233,-0.2258,-0.2288,-0.2278,-0.2249,-0.2231,-0.2226,-0.2213,-0.2181,-0.2175,-0.2201,-0.2149,-0.2141,-0.2109,-0.2099,-0.211,-0.2107,-0.2023,-0.2022,-0.2021,-0.2031,0,0,0,0,0,0,-0.2341,-0.2331,-0.2322,-0.2288,-0.2277,-0.2232,-0.2231,-0.2225,-0.2209,-0.2207,-0.2172,-0.2166,-0.2149,-0.2113,-0.2106,-0.2095,-0.2105,-0.2023,-0.2022,-0.2021,-0.2031,-0.203,-0.2029,0,0,0,0,0,-0.2345,-0.2326,-0.2321,-0.2313,-0.2264,-0.2232,-0.2225,-0.2206,-0.2208,-0.2197,-0.2176,-0.2167,-0.2101,-0.211,-0.2102,-0.2089,-0.2024,-0.2023,-0.2021,-0.2031,-0.203,-0.2029,0,0,0,0,0,0,-0.2358,-0.2321,-0.2316,-0.2286,-0.2262,-0.2228,-0.2214,-0.2206,-0.218,-0.218,-0.2157,-0.2149,-0.2118,-0.21,-0.2111,-0.206,-0.2062,-0.2059,-0.2073,-0.2071,-0.2071,-0.2075,-0.2102,0,0,0,0,0,-0.2358,-0.2336,-0.2304,-0.2281,-0.2269,-0.2244,-0.2229,-0.2217,-0.2191,-0.218,-0.2157,-0.2131,-0.2104,-0.2087,-0.2061,-0.2029,-0.202,-0.2016,-0.2015,-0.2015,-0.2012,-0.1992,-0.199,-0.2016,-0.2016,-0.2016,0,0,-0.2356,-0.2334,-0.2321,-0.2283,-0.2263,-0.2239,-0.2236,-0.2211,-0.2192,-0.2176,-0.2144,-0.2126,-0.2096,-0.2063,-0.2048,-0.2048,-0.2003,-0.2013,-0.2013,-0.201,-0.1991,-0.1988,-0.1986,-0.2015,-0.2016,-0.2016,0,0,-0.2342,-0.2323,-0.2301,-0.2281,-0.2252,-0.2235,-0.223,-0.2197,-0.2185,-0.2153,-0.214,-0.2117,-0.2072,-0.2051,-0.2034,-0.2011,-0.2001,-0.2003,-0.1998,-0.1979,-0.1977,-0.1975,-0.1966,-0.1963,-0.2,-0.2,-0.2,0,-0.2343,-0.2308,-0.229,-0.2266,-0.2249,-0.2234,-0.2211,-0.2193,-0.2155,-0.2143,-0.2144,-0.2087,-0.2065,-0.2027,-0.2022,-0.2009,-0.2001,-0.2006,-0.1979,-0.1977,-0.1975,-0.1966,-0.1962,-0.2001,-0.2001,-0.2001,-0.2001,0,-0.2311,-0.2287,-0.2272,-0.2238,-0.222,-0.2196,-0.2173,-0.2156,-0.2145,-0.2128,-0.2095,-0.2069,-0.2037,-0.2027,-0.2016,-0.1987,-0.1987,-0.1984,-0.1985,-0.1973,-0.1964,-0.196,-0.2001,-0.2001,-0.2001,-0.2001,0,0,-0.2302,-0.2259,-0.2253,-0.2237,-0.2204,-0.2184,-0.2159,-0.2129,-0.2114,-0.2089,-0.2067,-0.2029,-0.2025,-0.2006,-0.1993,-0.1976,-0.1958,-0.1975,-0.1974,-0.1972,-0.1923,-0.1925,-0.1921,-0.1952,-0.1952,-0.1951,-0.1925,0,-0.2282,-0.2238,-0.2221,-0.2185,-0.2162,-0.2147,-0.2126,-0.2102,-0.2085,-0.2062,-0.2042,-0.2016,-0.2014,-0.2002,-0.1986,-0.1964,-0.1948,-0.1966,-0.1929,-0.1928,-0.1936,-0.1917,-0.1918,-0.1896,-0.1922,-0.1921,-0.1921,0,-0.2253,-0.2228,-0.219,-0.2159,-0.2148,-0.2129,-0.21,-0.2078,-0.205,-0.2039,-0.2018,-0.2005,-0.1977,-0.1981,-0.1941,-0.1954,-0.1938,-0.1925,-0.1923,-0.1918,-0.1923,-0.191,-0.1888,-0.1884,-0.1915,-0.1915,-0.1916,0,-0.2249,-0.2206,-0.2178,-0.2165,-0.2128,-0.2114,-0.2098,-0.2071,-0.2054,-0.2027,-0.2015,-0.1986,-0.1969,-0.1946,-0.1925,-0.193,-0.1887,-0.1889,-0.1875,-0.1876,-0.1866,-0.1866,-0.184,-0.1858,-0.1858,-0.1858,-0.1858,0,-0.2227,-0.2204,-0.2175,-0.2158,-0.2131,-0.2111,-0.2085,-0.2067,-0.2043,-0.2021,-0.2007,-0.1985,-0.196,-0.1935,-0.1918,-0.1887,-0.188,-0.1869,-0.1864,-0.1869,-0.1871,-0.1858,-0.1858,-0.1857,-0.1857,-0.1857,-0.1857,0,-0.2218,-0.2198,-0.2166,-0.2134,-0.2125,-0.2106,-0.2078,-0.206,-0.2043,-0.2014,-0.2006,-0.1979,-0.1949,-0.1926,-0.1887,-0.1876,-0.1842,-0.1838,-0.1852,-0.1849,-0.1836,-0.1837,-0.1799,-0.1793,-0.1816,-0.1816,-0.1816,0,-0.2205,-0.2187,-0.2153,-0.2138,-0.2122,-0.2097,-0.208,-0.2059,-0.2041,-0.2008,-0.1993,-0.1963,-0.1937,-0.189,-0.1865,-0.1835,-0.1829,-0.1818,-0.1824,-0.1829,-0.1827,-0.1828,-0.1825,-0.1817,-0.1816,-0.1816,-0.1816,0,-0.2184,-0.2175,-0.2151,-0.2123,-0.2102,-0.2079,-0.2056,-0.2043,-0.2018,-0.1999,-0.1969,-0.1949,-0.1909,-0.1878,-0.1846,-0.1827,-0.1817,-0.1815,-0.1809,-0.1814,-0.1822,-0.1816,-0.1848,-0.1815,-0.1815,-0.1815,-0.1815,-0.1815,-0.2171,-0.2154,-0.2128,-0.2101,-0.2081,-0.206,-0.204,-0.2021,-0.1996,-0.1963,-0.1952,-0.1921,-0.1892,-0.1848,-0.1829,-0.1803,-0.1803,-0.1796,-0.1794,-0.1792,-0.1792,-0.1827,-0.1797,-0.1797,-0.1797,-0.1797,-0.1797,0,-0.2148,-0.2131,-0.2106,-0.2074,-0.2053,-0.2047,-0.202,-0.2002,-0.1975,-0.195,-0.1926,-0.189,-0.186,-0.1834,-0.1802,-0.1786,-0.1781,-0.1779,-0.1779,-0.1774,-0.1794,-0.1801,-0.1784,-0.1784,-0.1784,-0.1784,-0.1784,-0.1784,-0.2133,-0.2104,-0.2092,-0.2052,-0.2034,-0.2004,-0.1989,-0.1969,-0.1949,-0.191,-0.1886,-0.1869,-0.1843,-0.181,-0.1781,-0.1774,-0.1762,-0.1761,-0.1753,-0.1772,-0.1773,-0.1775,-0.1781,-0.1759,-0.1759,-0.1735,-0.1734,-0.1734]}]]